This is the latest recevied weather packets stored in our database for station/object KB1WCR. If no packets are shown the sender has not sent any weather packets the latest 1 day(s).
| Time | Temp. | Humidity | Pressure | Rain* | Wind** | Luminosity | Snow |
|---|---|---|---|---|---|---|---|
| 1778033939 | 16.11° C | 76% | 1008 hPa | 0 mm | 0 m/s | 0 W/m² | - |
| 1778033636 | 16.67° C | 76% | 1008.4 hPa | 0 mm | 0 m/s | 0 W/m² | - |
| 1778033332 | 16.67° C | 77% | 1008.4 hPa | 0 mm | 0 m/s | 0 W/m² | - |
| 1778033031 | 16.67° C | 76% | 1008 hPa | 0 mm | 0 m/s | 0 W/m² | - |
| 1778032728 | 17.22° C | 75% | 1007.9 hPa | 0 mm | 0 m/s | 0 W/m² | - |
| 1778032425 | 16.67° C | 74% | 1008.2 hPa | 0 mm | 0 m/s | 0 W/m² | - |
| 1778032122 | 16.67° C | 74% | 1008.3 hPa | 0 mm | 0 m/s | 0 W/m² | - |
| 1778031818 | 17.22° C | 75% | 1008.2 hPa | 0 mm | 0 m/s | 0 W/m² | - |
| 1778031515 | 17.22° C | 74% | 1008.2 hPa | 0 mm | 0 m/s | 0 W/m² | - |
| 1778031213 | 17.22° C | 75% | 1008.2 hPa | 0 mm | 0 m/s | 0 W/m² | - |
| 1778030909 | 17.22° C | 73% | 1008.4 hPa | 0 mm | 0 m/s | 0 W/m² | - |
| 1778030606 | 17.22° C | 74% | 1008.3 hPa | 0 mm | 0 m/s | 0 W/m² | - |
| 1778030303 | 17.22° C | 76% | 1008.2 hPa | 0 mm | 0 m/s | 0 W/m² | - |
| 1778030000 | 17.22° C | 74% | 1008.3 hPa | 0 mm | 0 m/s | 0 W/m² | - |
| 1778029697 | 17.22° C | 74% | 1008.1 hPa | 0 mm | 0 m/s | 0 W/m² | - |
| 1778029395 | 17.22° C | 74% | 1008.1 hPa | 0 mm | 0 m/s | 0 W/m² | - |
| 1778029092 | 17.78° C | 73% | 1007.9 hPa | 0 mm | 0 m/s | 0 W/m² | - |
| 1778028789 | 17.78° C | 73% | 1007.9 hPa | 0 mm | 0 m/s | 0 W/m² | - |
| 1778028485 | 17.78° C | 72% | 1007.8 hPa | 0 mm | 0.45 m/s, 52° | 0 W/m² | - |
| 1778028183 | 17.78° C | 72% | 1007.9 hPa | 0 mm | 0.45 m/s, 268° | 0 W/m² | - |
| 1778027878 | 17.78° C | 74% | 1007.9 hPa | 0 mm | 0 m/s | 0 W/m² | - |
| 1778027575 | 18.33° C | 71% | 1007.8 hPa | 0 mm | 0 m/s | 0 W/m² | - |
| 1778027271 | 18.33° C | 71% | 1007.9 hPa | 0 mm | 0 m/s | 0 W/m² | - |
| 1778026967 | 18.89° C | 71% | 1007.6 hPa | 0 mm | 0 m/s | 0 W/m² | - |
| 1778026663 | 18.89° C | 71% | 1007.5 hPa | 0 mm | 1.34 m/s, 270° | 0 W/m² | - |
* Rain latest hour (hover to see other rain measurements)
** Current wind speed in m/s (hover to see current wind gust speed)